Weather History for Grand Marais Airport, MN

Change the Weather History Date:

Sunday, October 27, 2013

  Actual Average Record
Temperature  
Mean Temperature 29 °F -  
Max Temperature 37 °F 40 °F 60 °F (1998)
Min Temperature 21 °F 29 °F 8 °F (1997)
Degree Days  
Heating Degree Days 36    
Moisture  
Dew Point 23 °F    
Average Humidity 73    
Maximum Humidity 86    
Minimum Humidity 59    
Precipitation  
Precipitation 0.00 in - - ()
Sea Level Pressure  
Sea Level Pressure 29.88 in    
Wind  
Wind Speed 6 mph (West)    
Max Wind Speed 24 mph    
Max Gust Speed 29 mph    
Visibility 9 miles    
Events Snow    
Averages and records for this station are not official NWS values.
T = Trace of Precipitation, MM = Missing Value Source: NWS Daily Summary

Daily Weather History Graph

Daily Weather History Graph

Search for Another Location

Airport:

Trip Planner

Search our weather history database for the weather conditions in past years. The results will help you decide how hot, cold, wet, or windy it might be!

Date:

Astronomy

Oct. 27, 2013 Rise Set
Actual Time 7:38 AM CDT 5:51 PM CDT
Civil Twilight 7:06 AM CDT 6:23 PM CDT
Nautical Twilight 6:30 AM CDT 6:59 PM CDT
Astronomical Twilight 5:54 AM CDT 7:35 PM CDT
Moon 12:07 AM CDT 2:27 PM CDT
Length of Visible Light 11h 16m
Length of Day
10h 12m
Last Quarter, 43% of the Moon is Illuminated
Oct 27
Last Quarter
Nov 3
New
Nov 9
First Quarter
Nov 17
Full
Nov 25
Last Quarter

Hourly Weather History & Observations

Time (CDT) Temp. Windchill Dew Point Humidity Pressure Visibility Wind Dir Wind Speed Gust Speed Precip Events Conditions
12:14 AM 30.2 °F 26.7 °F 21.2 °F 69% 29.89 in 10.0 mi SSW 3.5 mph - N/A   Overcast
12:33 AM 30.2 °F - 23.0 °F 75% 29.88 in 10.0 mi Calm Calm - N/A   Overcast
12:54 AM 30.2 °F - 23.0 °F 75% 29.87 in 10.0 mi Calm Calm - N/A   Overcast
1:14 AM 30.2 °F 25.4 °F 23.0 °F 75% 29.87 in 10.0 mi SW 4.6 mph - N/A   Overcast
1:33 AM 30.2 °F 25.4 °F 24.8 °F 80% 29.87 in 10.0 mi SW 4.6 mph - N/A   Mostly Cloudy
1:54 AM 30.2 °F - 24.8 °F 80% 29.86 in 10.0 mi Calm Calm - N/A   Mostly Cloudy
2:14 AM 30.2 °F 26.7 °F 24.8 °F 80% 29.85 in 10.0 mi SSW 3.5 mph - N/A   Overcast
2:33 AM 30.2 °F 25.4 °F 24.8 °F 80% 29.84 in 10.0 mi SSW 4.6 mph - N/A   Overcast
2:53 AM 30.2 °F 24.3 °F 24.8 °F 80% 29.84 in 10.0 mi SSW 5.8 mph - N/A   Mostly Cloudy
3:14 AM 30.2 °F 25.4 °F 24.8 °F 80% 29.83 in 10.0 mi SW 4.6 mph - N/A   Overcast
3:33 AM 30.2 °F 24.3 °F 24.8 °F 80% 29.82 in 10.0 mi SW 5.8 mph - N/A   Overcast
3:53 AM 30.2 °F 24.3 °F 24.8 °F 80% 29.81 in 10.0 mi SW 5.8 mph - N/A   Overcast
4:14 AM 30.2 °F 24.3 °F 23.0 °F 75% 29.80 in 10.0 mi SW 5.8 mph - N/A   Overcast
4:33 AM 30.2 °F 25.4 °F 23.0 °F 75% 29.80 in 10.0 mi SW 4.6 mph - N/A   Mostly Cloudy
4:53 AM 30.2 °F 24.3 °F 24.8 °F 80% 29.79 in 3.0 mi SW 5.8 mph - N/A Snow Light Snow
5:14 AM 30.2 °F - 24.8 °F 80% 29.79 in 5.0 mi Calm Calm - N/A Snow Light Snow
5:34 AM 30.2 °F - 24.8 °F 80% 29.78 in 10.0 mi Calm Calm - N/A Snow Light Snow
5:53 AM 30.2 °F 26.7 °F 24.8 °F 80% 29.78 in 10.0 mi SSW 3.5 mph - N/A   Mostly Cloudy
6:14 AM 30.2 °F 26.7 °F 24.8 °F 80% 29.77 in 10.0 mi SW 3.5 mph - N/A   Mostly Cloudy
6:33 AM 30.2 °F 21.9 °F 24.8 °F 80% 29.76 in 10.0 mi SSW 9.2 mph - N/A   Mostly Cloudy
6:53 AM 30.2 °F 24.3 °F 23.0 °F 75% 29.75 in 10.0 mi South 5.8 mph - N/A   Mostly Cloudy
7:14 AM 30.2 °F 23.4 °F 23.0 °F 75% 29.75 in 10.0 mi SSW 6.9 mph - N/A   Overcast
7:33 AM 30.2 °F 22.6 °F 23.0 °F 75% 29.75 in 10.0 mi SSW 8.1 mph - N/A   Overcast
7:53 AM 30.2 °F 22.6 °F 23.0 °F 75% 29.75 in 10.0 mi SSW 8.1 mph - N/A   Overcast
8:14 AM 30.2 °F 25.4 °F 23.0 °F 75% 29.75 in 10.0 mi SSW 4.6 mph - N/A   Overcast
8:33 AM 30.2 °F 24.3 °F 24.8 °F 80% 29.75 in 10.0 mi SW 5.8 mph - N/A   Overcast
8:53 AM 30.2 °F 26.7 °F 24.8 °F 80% 29.74 in 10.0 mi South 3.5 mph - N/A   Overcast
9:14 AM 30.2 °F 25.4 °F 24.8 °F 80% 29.74 in 10.0 mi SSW 4.6 mph - N/A   Overcast
9:33 AM 32.0 °F 26.4 °F 24.8 °F 75% 29.74 in 10.0 mi SSW 5.8 mph - N/A   Overcast
9:53 AM 32.0 °F 26.4 °F 24.8 °F 75% 29.74 in 10.0 mi SSW 5.8 mph - N/A   Overcast
10:14 AM 33.8 °F 27.0 °F 24.8 °F 70% 29.73 in 10.0 mi SSW 8.1 mph - N/A   Overcast
10:33 AM 33.8 °F 27.0 °F 24.8 °F 70% 29.73 in 10.0 mi SSW 8.1 mph - N/A   Overcast
10:53 AM 33.8 °F 29.6 °F 26.6 °F 75% 29.73 in 10.0 mi SSW 4.6 mph - N/A   Overcast
11:14 AM 35.6 °F 32.8 °F 26.6 °F 70% 29.73 in 10.0 mi SSW 3.5 mph - N/A   Mostly Cloudy
11:33 AM 35.6 °F 32.8 °F 26.6 °F 70% 29.73 in 10.0 mi SW 3.5 mph - N/A   Overcast
11:53 AM 35.6 °F 31.7 °F 24.8 °F 65% 29.74 in 10.0 mi SW 4.6 mph - N/A   Overcast
12:14 PM 37.4 °F 32.8 °F 24.8 °F 60% 29.74 in 10.0 mi WNW 5.8 mph - N/A   Mostly Cloudy
12:33 PM 37.4 °F 32.8 °F 24.8 °F 60% 29.74 in 10.0 mi WNW 5.8 mph - N/A   Mostly Cloudy
12:53 PM 37.4 °F 32.1 °F 24.8 °F 60% 29.75 in 10.0 mi WNW 6.9 mph - N/A   Overcast
1:14 PM 37.4 °F 29.3 °F 24.8 °F 60% 29.75 in 10.0 mi NNW 12.7 mph - N/A   Overcast
1:33 PM 35.6 °F 28.6 °F 24.8 °F 65% 29.77 in 10.0 mi NW 9.2 mph 17.3 mph N/A   Overcast
1:53 PM 35.6 °F 29.2 °F 24.8 °F 65% 29.77 in 10.0 mi NNW 8.1 mph 16.1 mph N/A   Overcast
2:14 PM 35.6 °F 27.5 °F 24.8 °F 65% 29.78 in 10.0 mi NW 11.5 mph 16.1 mph N/A   Overcast
2:33 PM 35.6 °F 28.6 °F 26.6 °F 70% 29.79 in 10.0 mi NNW 9.2 mph - N/A   Overcast
2:54 PM 35.6 °F 27.1 °F 26.6 °F 70% 29.81 in 10.0 mi NW 12.7 mph 21.9 mph N/A   Overcast
3:14 PM 33.8 °F 24.8 °F 26.6 °F 75% 29.82 in 10.0 mi NNW 12.7 mph 20.7 mph N/A   Overcast
3:33 PM 33.8 °F 25.3 °F 26.6 °F 75% 29.84 in 10.0 mi NNW 11.5 mph 18.4 mph N/A   Overcast
3:54 PM 33.8 °F 26.4 °F 26.6 °F 75% 29.85 in 10.0 mi NNW 9.2 mph 18.4 mph N/A   Overcast
4:14 PM 33.8 °F 25.3 °F 26.6 °F 75% 29.87 in 10.0 mi NNW 11.5 mph 21.9 mph N/A   Overcast
4:33 PM 33.8 °F 23.9 °F 26.6 °F 75% 29.88 in 10.0 mi NNW 15.0 mph 19.6 mph N/A   Mostly Cloudy
4:53 PM 33.8 °F 25.8 °F 26.6 °F 75% 29.89 in 10.0 mi NNW 10.4 mph 17.3 mph N/A   Scattered Clouds
5:14 PM 33.8 °F 24.8 °F 26.6 °F 75% 29.92 in 2.0 mi NNW 12.7 mph 23.0 mph N/A Snow Light Snow
5:33 PM 30.2 °F 20.8 °F 26.6 °F 86% 29.93 in 7.0 mi NNW 11.5 mph 19.6 mph N/A Snow Light Snow
5:53 PM 30.2 °F 18.5 °F 26.6 °F 86% 29.95 in 2.0 mi NNW 17.3 mph 28.8 mph N/A Snow Light Snow
6:14 PM 30.2 °F 20.8 °F 24.8 °F 80% 29.98 in 10.0 mi North 11.5 mph 23.0 mph N/A   Scattered Clouds
6:33 PM 30.2 °F 18.5 °F 24.8 °F 80% 30.00 in 3.0 mi North 17.3 mph 24.2 mph N/A Snow Light Snow
6:53 PM 30.2 °F 21.3 °F 24.8 °F 80% 30.01 in 10.0 mi NNW 10.4 mph 20.7 mph N/A   Mostly Cloudy
7:14 PM 28.4 °F 18.5 °F 23.0 °F 80% 30.03 in 5.0 mi NNW 11.5 mph 19.6 mph N/A   Haze
7:33 PM 28.4 °F 18.0 °F 21.2 °F 74% 30.05 in 10.0 mi NNW 12.7 mph 18.4 mph N/A   Mostly Cloudy
7:53 PM 28.4 °F 17.0 °F 19.4 °F 69% 30.06 in 10.0 mi North 15.0 mph 24.2 mph N/A   Scattered Clouds
8:14 PM 26.6 °F 14.7 °F 19.4 °F 74% 30.08 in 10.0 mi NNW 15.0 mph 23.0 mph N/A   Scattered Clouds
8:33 PM 26.6 °F 14.7 °F 17.6 °F 69% 30.09 in 10.0 mi North 15.0 mph 25.3 mph N/A   Scattered Clouds
8:53 PM 26.6 °F 14.7 °F 19.4 °F 74% 30.11 in 10.0 mi NNW 15.0 mph 21.9 mph N/A   Mostly Cloudy
9:14 PM 26.6 °F 15.2 °F 17.6 °F 69% 30.12 in 10.0 mi NNW 13.8 mph 20.7 mph N/A   Overcast
9:34 PM 24.8 °F 10.0 °F 14.0 °F 64% 30.14 in 10.0 mi North 21.9 mph 27.6 mph N/A   Scattered Clouds
9:53 PM 24.8 °F 9.3 °F 12.2 °F 59% 30.16 in 10.0 mi North 24.2 mph 28.8 mph N/A   Clear
10:14 PM 23.0 °F 10.6 °F 12.2 °F 63% 30.18 in 10.0 mi North 13.8 mph 25.3 mph N/A   Clear
10:34 PM 21.2 °F 8.3 °F 10.4 °F 63% 30.20 in 10.0 mi North 13.8 mph 26.5 mph N/A   Scattered Clouds
10:53 PM 21.2 °F 7.8 °F 10.4 °F 63% 30.21 in 10.0 mi North 15.0 mph 25.3 mph N/A   Scattered Clouds
11:14 PM 21.2 °F 8.3 °F 10.4 °F 63% 30.22 in 10.0 mi North 13.8 mph 19.6 mph N/A   Clear
11:34 PM 21.2 °F 9.5 °F 10.4 °F 63% 30.23 in 10.0 mi North 11.5 mph 17.3 mph N/A   Clear
11:53 PM 21.2 °F 9.5 °F 12.2 °F 68% 30.24 in 10.0 mi North 11.5 mph 16.1 mph N/A   Clear